This demonstration page uses our WeatherBlox Daily Observations layout. Learn more.

Left ArrowRight Arrow

44.8408, -93.29828

Hourly Observations for March 18, 2022

Temp ( °F °C ) Dew Point ( °F °C ) Humidity (%) Winds ( mph kmh ) Pressure ( in mb ) Visibility ( mi km ) Precip ( " mm )
12:53 am 00:53 Mostly Cloudy 37 2.8 28 -2.2 70 70 NNW 7 11 30.08 1019 10 16 0.00 0.00
1:53 am 01:53 Partly Cloudy 37 2.8 29 -1.7 73 73 N 6 9 30.09 1019 10 16 0.00 0.00
2:53 am 02:53 Partly Cloudy 35 1.7 28 -2.2 76 76 NNW 3 6 30.10 1019 10 16 0.00 0.00
3:53 am 03:53 Partly Cloudy 35 1.7 28 -2.2 76 76 Calm 30.09 1019 10 16 0.00 0.00
4:53 am 04:53 Partly Cloudy 34 1.1 28 -2.2 79 79 N 3 6 30.09 1019 10 16 0.00 0.00
5:53 am 05:53 Mostly Cloudy 33 0.6 27 -2.8 78 78 N 6 9 30.09 1019 10 16 0.00 0.00
6:53 am 06:53 Cloudy 33 0.6 28 -2.2 82 82 N 5 7 30.10 1019 10 16 0.00 0.00
7:53 am 07:53 Cloudy 34 1.1 28 -2.2 79 79 NE 6 9 30.10 1019 10 16 0.00 0.00
8:53 am 08:53 Mostly Cloudy 36 2.2 28 -2.2 73 73 ENE 7 11 30.10 1019 10 16 0.00 0.00
9:53 am 09:53 Mostly Cloudy 39 3.9 29 -1.7 67 67 ENE 9 15 30.10 1019 10 16 0.00 0.00
10:53 am 10:53 Mostly Cloudy 40 4.4 28 -2.2 63 63 ENE 13 20 30.07 1018 10 16 0.00 0.00
11:53 am 11:53 Mostly Cloudy 42 5.6 28 -2.2 58 58 ENE 15 24 30.06 1018 10 16 0.00 0.00
12:53 pm 12:53 Partly Cloudy 44 6.7 28 -2.2 53 53 NE 15 24 30.04 1017 10 16 0.00 0.00
1:53 pm 13:53 Partly Cloudy 46 7.8 29 -1.7 51 51 NNE 14 22 30.02 1017 10 16 0.00 0.00
2:53 pm 14:53 Partly Cloudy 46 7.8 28 -2.2 50 50 N 14 22 29.99 1016 10 16 0.00 0.00
3:53 pm 15:53 Mostly Cloudy 46 7.8 28 -2.2 50 50 N 13 20 29.98 1015 10 16 0.00 0.00
4:53 pm 16:53 Mostly Cloudy 45 7.2 28 -2.2 52 52 N 13 20 29.98 1015 10 16 0.00 0.00
5:53 pm 17:53 Mostly Cloudy 44 6.7 27 -2.8 51 51 NNE 13 20 29.97 1015 10 16 0.00 0.00
6:53 pm 18:53 Mostly Cloudy 41 5 27 -2.8 57 57 NNE 13 20 29.98 1015 10 16 0.00 0.00
7:53 pm 19:53 Mostly Cloudy 39 3.9 27 -2.8 62 62 N 9 15 29.99 1016 10 16 0.00 0.00
8:53 pm 20:53 Mostly Cloudy 37 2.8 26 -3.3 65 65 N 7 11 29.99 1016 10 16 0.00 0.00
9:53 pm 21:53 Partly Cloudy 36 2.2 26 -3.3 67 67 N 9 15 29.98 1015 10 16 0.00 0.00
10:53 pm 22:53 Mostly Clear 34 1.1 26 -3.3 73 73 N 8 13 29.99 1016 10 16 0.00 0.00
11:53 pm 23:53 Clear 33 0.6 26 -3.3 75 75 N 7 11 29.98 1015 10 16 0.00 0.00

Powered by AerisWeather